Location: Waco, TX
(31.5480°N, 97.1670°W)
Time: 12:40:26
(UTC-06:00)

ISS - Pass Details

Date: 15 February 2018
Orbit: 402 x 407 km, 51.6° (Epoch: 24 February)

Event Time Altitude Azimuth Distance (km) Brightness Sun altitude
Rises 16:43:26 0° 336° (NNW) 2,315 0.0 17.5°
Reaches altitude 10° 16:47:09 10° 19° (NNE) 1,454 -1.4 16.8°
Maximum altitude 16:47:47 10° 31° (NNE) 1,428 -1.5 16.7°
Drops below altitude 10° 16:48:27 10° 43° (NE) 1,455 -1.5 16.6°
Sets 16:52:07 0° 86° (E) 2,309 -0.6 15.9°
